Location: Newark
(44.1667°N, 8.2500°E)
Time: 10:51:34
(UTC+00:00)

Envisat - Pass Details

Date: 15 November 2019
Orbit: 764 x 766 km, 98.1° (Epoch: 11 December)

Event Time Altitude Azimuth Distance (km) Brightness Sun altitude
Rises 05:08:26 0° 29° (NNE) 3,241 6.5 -13.2°
Reaches altitude 10° 05:11:30 10° 48° (NE) 2,309 6.0 -12.7°
Maximum altitude 05:14:55 18° 91° (E) 1,812 6.1 -12.1°
Drops below altitude 10° 05:18:19 10° 133° (SE) 2,296 6.5 -11.5°
Sets 05:21:20 0° 152° (SSE) 3,216 6.9 -11.0°
